Weather History for Mammoth, CA

Change the Weather History Date:

Tuesday, May 7, 2013

  Actual Average Record
Temperature  
Mean Temperature 41 °F -  
Max Temperature 50 °F 57 °F 75 °F (2001)
Min Temperature 32 °F 45 °F 28 °F (2014)
Degree Days  
Heating Degree Days 24    
Moisture  
Dew Point 34 °F    
Average Humidity 81    
Maximum Humidity 100    
Minimum Humidity 47    
Precipitation  
Precipitation 0.01 in - - ()
Sea Level Pressure  
Sea Level Pressure 30.00 in    
Wind  
Wind Speed 3 mph (WNW)    
Max Wind Speed 26 mph    
Max Gust Speed 33 mph    
Visibility 10 miles    
Events Rain    
Averages and records for this station are not official NWS values.
T = Trace of Precipitation, MM = Missing Value Source: NWS Daily Summary

Daily Weather History Graph

Daily Weather History Graph

Search for Another Location

Airport:

Trip Planner

Search our weather history database for the weather conditions in past years. The results will help you decide how hot, cold, wet, or windy it might be!

Date:

Astronomy

May. 07, 2013 Rise Set
Actual Time 5:53 AM PDT 7:51 PM PDT
Civil Twilight 5:24 AM PDT 8:20 PM PDT
Nautical Twilight 4:49 AM PDT 8:55 PM PDT
Astronomical Twilight 4:12 AM PDT 9:32 PM PDT
Moon 4:27 AM PDT (5/7) 5:57 PM PDT (5/7)
Length of Visible Light 14h 55m
Length of Day
13h 58m
Waning Crescent, 5% of the Moon is Illuminated
May 7
Waning Crescent
May 9
New
May 17
First Quarter
May 24
Full
May 31
Last Quarter

Hourly Weather History & Observations

Time (PDT) Temp. Windchill Dew Point Humidity Pressure Visibility Wind Dir Wind Speed Gust Speed Precip Events Conditions
12:15 AM 33.8 °F - 33.8 °F 100% 29.99 in 10.0 mi Calm Calm - N/A   Overcast
12:35 AM 35.6 °F - 33.8 °F 93% 29.99 in 10.0 mi Calm Calm - N/A   Overcast
1:15 AM 33.8 °F - 33.8 °F 100% 29.99 in 10.0 mi North - - N/A   Overcast
1:35 AM 35.6 °F - 33.8 °F 93% 29.98 in 10.0 mi Calm Calm - N/A   Overcast
1:55 AM 35.6 °F - 33.8 °F 93% 29.98 in 10.0 mi Calm Calm - N/A   Overcast
2:15 AM 35.6 °F 31.7 °F 33.8 °F 93% 29.97 in 10.0 mi SE 4.6 mph - N/A   Overcast
2:35 AM 35.6 °F 31.7 °F 33.8 °F 93% 29.97 in 10.0 mi ESE 4.6 mph - N/A   Overcast
2:55 AM 35.6 °F - 33.8 °F 93% 29.97 in 10.0 mi Calm Calm - N/A   Overcast
3:15 AM 35.6 °F - 33.8 °F 93% 29.97 in 10.0 mi Calm Calm - N/A   Overcast
3:35 AM 35.6 °F - 33.8 °F 93% 29.97 in 10.0 mi Calm Calm - N/A   Overcast
3:55 AM 35.6 °F - 33.8 °F 93% 29.97 in 10.0 mi Calm Calm - N/A   Overcast
4:15 AM 33.8 °F - 33.8 °F 100% 29.97 in 10.0 mi Calm Calm - N/A   Overcast
4:35 AM 35.6 °F - 33.8 °F 93% 29.97 in 10.0 mi Calm Calm - N/A   Overcast
4:55 AM 35.6 °F - 33.8 °F 93% 29.97 in 10.0 mi Calm Calm - N/A   Overcast
5:15 AM 35.6 °F - 33.8 °F 93% 29.97 in 10.0 mi Calm Calm - N/A   Overcast
5:35 AM 35.6 °F 32.8 °F 33.8 °F 93% 29.96 in 10.0 mi ESE 3.5 mph - N/A   Overcast
5:55 AM 35.6 °F 30.7 °F 33.8 °F 93% 29.97 in 10.0 mi ESE 5.8 mph - N/A   Overcast
6:15 AM 35.6 °F 31.7 °F 32.0 °F 87% 29.97 in 10.0 mi ESE 4.6 mph - N/A   Mostly Cloudy
6:35 AM 35.6 °F 32.8 °F 33.8 °F 93% 29.97 in 10.0 mi ESE 3.5 mph - N/A   Overcast
6:55 AM 35.6 °F - 33.8 °F 93% 29.97 in 10.0 mi Calm Calm - N/A   Overcast
7:15 AM 35.6 °F - 33.8 °F 93% 29.99 in 10.0 mi Calm Calm - N/A   Overcast
7:35 AM 37.4 °F 33.8 °F 33.8 °F 87% 29.99 in 10.0 mi ESE 4.6 mph - N/A   Overcast
7:55 AM 37.4 °F - 33.8 °F 87% 29.99 in 10.0 mi North - - N/A Rain Light Rain
8:15 AM 37.4 °F 33.8 °F 32.0 °F 81% 30.00 in 10.0 mi South 4.6 mph - N/A Rain Light Rain
8:35 AM 37.4 °F - 33.8 °F 87% 30.01 in 10.0 mi Calm Calm - N/A Rain Rain
8:55 AM 37.4 °F 32.8 °F 33.8 °F 87% 30.01 in 4.0 mi NW 5.8 mph - N/A Rain Rain
9:15 AM 35.6 °F 31.7 °F 35.6 °F 100% 30.02 in 10.0 mi West 4.6 mph - N/A Rain Light Rain
9:35 AM 37.4 °F 33.8 °F 35.6 °F 93% 30.02 in 10.0 mi WSW 4.6 mph - N/A Rain Light Rain
9:55 AM 37.4 °F - 35.6 °F 93% 30.02 in 10.0 mi Calm Calm - N/A   Light Drizzle
10:15 AM 39.2 °F 37.0 °F 35.6 °F 87% 30.02 in 10.0 mi WNW 3.5 mph - N/A   Overcast
10:55 AM 39.2 °F - 35.6 °F 87% 30.03 in 10.0 mi Calm Calm - N/A Rain Light Rain
11:15 AM 41.0 °F - 35.6 °F 81% 30.02 in 10.0 mi North - - N/A   Overcast
11:35 AM 42.8 °F - 33.8 °F 70% 30.02 in 10.0 mi North - - N/A   Overcast
11:55 AM 44.6 °F 40.7 °F 33.8 °F 66% 30.01 in 10.0 mi West 6.9 mph - N/A   Overcast
12:15 PM 46.4 °F - 35.6 °F 66% 30.01 in 10.0 mi North - - N/A   Overcast
12:35 PM 46.4 °F 44.3 °F 32.0 °F 57% 29.99 in 10.0 mi West 4.6 mph - N/A   Overcast
12:55 PM 46.4 °F - 33.8 °F 62% 29.99 in 10.0 mi North - - N/A   Overcast
1:15 PM 44.6 °F - 35.6 °F 71% 30.00 in 10.0 mi North - - N/A Rain Light Rain
1:35 PM 44.6 °F - 33.8 °F 66% 29.99 in 10.0 mi North - - N/A   Overcast
1:55 PM 48.2 °F - 33.8 °F 58% 29.99 in 10.0 mi North - - N/A   Mostly Cloudy
2:15 PM 50.0 °F - 33.8 °F 54% 29.98 in 10.0 mi North - - N/A   Mostly Cloudy
2:35 PM 48.2 °F - 35.6 °F 62% 29.99 in 10.0 mi West 8.1 mph - 0.01 in Rain Light Rain
2:55 PM 50.0 °F - 35.6 °F 58% 29.99 in 10.0 mi WNW 18.4 mph - 0.01 in   Mostly Cloudy
3:15 PM 50.0 °F - 33.8 °F 54% 29.98 in 10.0 mi West 26.5 mph 33.4 mph N/A   Mostly Cloudy
3:35 PM 50.0 °F - 30.2 °F 47% 29.98 in 10.0 mi West 17.3 mph 25.3 mph N/A   Mostly Cloudy
3:55 PM 44.6 °F 39.2 °F 37.4 °F 76% 29.99 in 10.0 mi WNW 10.4 mph 23.0 mph N/A Rain Light Rain
4:15 PM 48.2 °F - 39.2 °F 71% 29.99 in 10.0 mi NW 10.4 mph 16.1 mph N/A   Mostly Cloudy
4:35 PM 50.0 °F - 32.0 °F 50% 29.98 in 10.0 mi WNW 11.5 mph 17.3 mph N/A   Scattered Clouds
4:55 PM 48.2 °F - 32.0 °F 54% 29.99 in 10.0 mi WNW 13.8 mph 19.6 mph N/A   Mostly Cloudy
5:15 PM 48.2 °F - 33.8 °F 58% 29.99 in 10.0 mi NW 16.1 mph - N/A   Overcast
5:35 PM 44.6 °F 37.2 °F 33.8 °F 66% 30.00 in 10.0 mi NW 17.3 mph 24.2 mph N/A   Overcast
5:55 PM 42.8 °F 35.8 °F 35.6 °F 76% 30.01 in 10.0 mi NW 13.8 mph 19.6 mph N/A Rain Light Rain
6:15 PM 42.8 °F 39.3 °F 35.6 °F 76% 30.02 in 10.0 mi NW 5.8 mph - N/A   Drizzle
6:55 PM 44.6 °F - 33.8 °F 66% 30.01 in 10.0 mi North - - N/A   Overcast
7:15 PM 42.8 °F - 35.6 °F 76% 30.02 in 10.0 mi North - - N/A   Mostly Cloudy
7:35 PM 42.8 °F - 35.6 °F 76% 30.02 in 10.0 mi North - - N/A   Mostly Cloudy
7:55 PM 41.0 °F - 35.6 °F 81% 30.03 in 10.0 mi Calm Calm - N/A   Overcast
8:15 PM 41.0 °F - 35.6 °F 81% 30.03 in 10.0 mi Calm Calm - N/A   Overcast
8:35 PM 39.2 °F - 35.6 °F 87% 30.04 in 10.0 mi Calm Calm - N/A   Overcast
8:55 PM 39.2 °F - 35.6 °F 87% 30.04 in 10.0 mi North - - N/A   Mostly Cloudy
9:15 PM 37.4 °F - 33.8 °F 87% 30.04 in 10.0 mi Calm Calm - N/A   Mostly Cloudy
9:35 PM 35.6 °F 31.7 °F 33.8 °F 93% 30.05 in 10.0 mi NNW 4.6 mph - N/A   Mostly Cloudy
9:55 PM 35.6 °F - 33.8 °F 93% 30.05 in 10.0 mi Calm Calm - N/A   Mostly Cloudy
10:15 PM 35.6 °F - 32.0 °F 87% 30.05 in 10.0 mi Calm Calm - N/A   Clear
10:35 PM 33.8 °F 29.6 °F 30.2 °F 87% 30.07 in 10.0 mi NW 4.6 mph - N/A   Scattered Clouds
10:55 PM 32.0 °F 28.7 °F 30.2 °F 93% 30.07 in 10.0 mi NNE 3.5 mph - N/A   Mostly Cloudy
11:15 PM 32.0 °F - 30.2 °F 93% 30.07 in 10.0 mi Calm Calm - N/A   Scattered Clouds
11:35 PM 33.8 °F - 30.2 °F 87% 30.07 in 10.0 mi Calm Calm - N/A   Scattered Clouds
11:55 PM 32.0 °F - 30.2 °F 93% 30.07 in 10.0 mi Calm Calm - N/A   Clear